Tracking 28790 objects as of 19-Apr-2024
HD Live streaming from Space Station
objects crossing your sky now

SL-8 R/B

Track SL-8 R/B now!
10-day predictions
SL-8 R/B is classified as:


NORAD ID: 15483
Int'l Code: 1985-006B
Perigee: 762.3 km
Apogee: 788.9 km
Inclination: 74.0 °
Period: 100.2 minutes
Semi major axis: 7146 km
RCS: 4.7342 m2 (large)
Launch date: January 17, 1985
Source: Commonwealth of Independent States (former USSR) (CIS)
Launch site: PLESETSK MISSILE AND SPACE COMPLEX (PKMTR)

Note: This is a ROCKET BODY
Your satellite tracking list
Your tracking list is empty




NASA's NSSDC Master Catalog

Two Line Element Set (TLE):
1 15483U 85006B   24110.10823281  .00000955  00000-0  33028-3 0  9991
2 15483  74.0440  89.3117 0018665 178.7468 253.4716 14.36990777 55212
Source of the keplerian elements: AFSPC